Flag for Malaysia Weather past 2 weeks in Kuching, Malaysia

Now
79 °F

Thunderstorms. Partly cloudy.


Feels Like: 83 °F
Forecast: 79 / 89 °F
Wind: 3 mph from South

Location: Kuching Airport

Current Time: May 31, 2015 at 3:49:49 AM

Latest Report: May 31, 2015 at 3:00 AM


Visibility: N/A

Pressure: 29.77 "Hg

Humidity: 94%

Dew point: 77 °F

Location of KuchingLocation

Historic Weather in Kuching — Graph

°F

Kuching temperature yesterday

Maximum temperature yesterday: 93 °F (at 2:00 PM)
Minimum temperature yesterday: 75 °F (at 6:00 AM)
Average temperature yesterday: 84 °F

Past Weeks' High & Low Weather Summary

 TemperatureHumidityPressure
High95 °F (May 21, 2:30 PM)100% (May 16, 2:00 AM)29.95 "Hg (May 16, 2:00 AM)
Low75 °F (May 16, 2:00 AM)53% (May 25, 1:30 PM)29.74 "Hg (May 17, 2:00 PM)
Average81 °F86%29.84 "Hg
* Reported May 16 2:00 AM — May 31 2:30 AM, Kuching, Weather by CustomWeather, © 2015

Note: Actual official high and low records may vary slightly from our data, if they occured in-between our weather recording intervals... More about our weather records

Advertising

Kuching weather history for previous 24 hours

 ConditionsComfort  
Time TempWeatherWind HumidityBarometerVisibility
2:30 AM
Sun, May 31
79 °FThunderstorms. Partly cloudy.2 mph94%29.77 "HgN/A
2:00 AM79 °FPartly cloudy.3 mph94%29.77 "HgN/A
1:30 AM79 °FThunderstorms. Partly cloudy.1 mph94%29.80 "HgN/A
1:00 AM79 °FThunderstorms. Partly cloudy.1 mph94%29.80 "HgN/A
12:30 AM79 °FPartly cloudy.1 mph94%29.80 "HgN/A
12:00 AM79 °FPassing clouds.2 mph94%29.80 "HgN/A
11:30 PM
Sat, May 30
81 °FPassing clouds.2 mph89%29.83 "HgN/A
11:00 PM81 °FPartly cloudy.2 mph89%29.83 "HgN/A
10:30 PM81 °FPartly cloudy.2 mph89%29.83 "HgN/A
10:00 PM81 °FPartly cloudy.3 mph84%29.83 "HgN/A
9:30 PM81 °FPassing clouds.3 mph89%29.80 "HgN/A
9:00 PM82 °FPassing clouds.1 mph89%29.80 "HgN/A
8:30 PM84 °FPassing clouds.5 mph84%29.80 "HgN/A
8:00 PM84 °FThunderstorms. Partly cloudy.3 mph84%29.77 "HgN/A
7:30 PM86 °FThunderstorms. Partly cloudy.3 mph79%29.77 "HgN/A
7:00 PM86 °FThunderstorms. Partly cloudy.5 mph79%29.77 "Hg4 mi
6:30 PM86 °FBroken clouds.6 mph79%29.77 "Hg4 mi
6:00 PM88 °FBroken clouds.7 mph75%29.74 "Hg4 mi
5:30 PM90 °FBroken clouds.8 mph71%29.74 "Hg4 mi
5:00 PM90 °FBroken clouds.7 mph71%29.74 "HgN/A
4:30 PM93 °FBroken clouds.6 mph59%29.74 "HgN/A
4:00 PM93 °FBroken clouds.3 mph56%29.74 "HgN/A
3:30 PM93 °FBroken clouds.3 mph59%29.74 "HgN/A
3:00 PM93 °FBroken clouds.6 mph59%29.74 "HgN/A
2:30 PM93 °FBroken clouds.5 mph56%29.77 "HgN/A
2:00 PM93 °FBroken clouds.7 mph59%29.80 "HgN/A
1:30 PM91 °FBroken clouds.8 mph63%29.80 "HgN/A
1:00 PM91 °FBroken clouds.7 mph63%29.83 "HgN/A
12:30 PM90 °FBroken clouds.6 mph71%29.83 "HgN/A
12:00 PM90 °FBroken clouds.5 mph67%29.86 "HgN/A
11:30 AM88 °FBroken clouds.5 mph75%29.86 "HgN/A
11:00 AM88 °FBroken clouds.3 mph75%29.89 "HgN/A
10:30 AM88 °FPartly sunny.3 mph75%29.89 "HgN/A
10:00 AM86 °FPartly sunny.3 mph79%29.89 "HgN/A
9:30 AM84 °FPartly sunny.5 mph84%29.89 "HgN/A
9:00 AM82 °FPartly sunny.3 mph84%29.89 "HgN/A
8:30 AM81 °FPartly sunny.3 mph89%29.89 "HgN/A
8:00 AM79 °FPartly sunny.1 mph94%29.89 "HgN/A
7:30 AM77 °FPartly sunny.3 mph94%29.86 "HgN/A
7:00 AM75 °FPartly sunny.3 mph100%29.86 "HgN/A
6:30 AM75 °FBroken clouds.1 mph100%29.86 "Hg5 mi
6:00 AM75 °FPartly cloudy.1 mph100%29.86 "HgN/A
5:30 AM77 °FPassing clouds.1 mph94%29.83 "HgN/A
4:30 AM77 °FPassing clouds.1 mph94%29.83 "HgN/A
4:00 AM77 °FPassing clouds.3 mph94%29.83 "HgN/A
3:30 AM77 °FPassing clouds.3 mph94%29.83 "HgN/A
3:00 AM77 °FPartly cloudy.1 mph100%29.83 "HgN/A
Weather by CustomWeather, © 2015

See weather overviewHow to use our weather pages